Weather in Podbuzhye

Russia / Kaluga Oblast     53°29′57″N   34°55′26″E
temp.,
°C
wind,
m/s
gust,
m/s
humid.,
%
clouds,
%
prec.,
mm/h
press.,
hPa
HPBL,
m
1 august, sun
sun100:00+17s226920 0.0 101111
03:00+17sse227894 0.0 101130
06:00+17sse3682100 0.1 1011118
09:00+22sw377165 0.4 1011370
12:00+28sw46476 0.0 10101196
15:00+29sw463935 0.0 10102381
18:00+28wsw245427 0.0 1009537
21:00+22sse227310 0.0 100913
2 august, mon
mon200:00+18wsw229278 1.6 101030
03:00+17sse22955 2.6 100938
06:00+17ssw399681 1.4 1009203
09:00+23s477899 2.0 1008415
12:00+28ssw6952100 0.0 10061249
15:00+30ssw5845100 0.0 10051719
18:00+29s495282 0.0 1003509
21:00+18ese5798100 14.6 1006255
3 august, tue
tue300:00+19sse3798100 0.4 1005315
03:00+18wsw41098100 0.4 1005414
06:00+17w499493 0.1 1007589
09:00+16wnw4787100 0.1 1010627
12:00+22wnw465853 0.0 10101593
15:00+21w576519 0.8 10111427
18:00+19wsw378290 2.1 1012477
21:00+15w34884 2.3 101357
4 august, wed
wed400:00+13w34875 0.0 101456
03:00+13w22874 0.0 101526
06:00+12wsw23900 0.0 101651
09:00+18w34693 0.0 1016414
12:00+22w455134 0.0 10161770
15:00+22wsw3453100 0.0 10161347
18:00+19wnw2668100 0.0 1017201
21:00+18nnw1173100 0.0 101711
5 august, thu
thu500:00+15sw008531 0.0 101811
03:00+13ssw01895 0.0 101811
06:00+14se1185100 0.0 101810
09:00+19sse226499 0.0 1018343
12:00+22s4552100 0.0 1018794
15:00+17ssw1175100 0.1 101825
18:00+18e2269100 0.0 1017179
21:00+16ese347693 0.0 101661